Zurück zum Katalog

FENGYUN 1C DEB

AktivLEO
NORAD 31010·DEBRIS·🇨🇳 China

Gestartet May 10, 1999 von Taiyuan Satellite Launch Center

Loading…

Nächste Überflüge (nächste 24 Stunden)

TLE

AktuellSource: Space-Track

Epoche: Sep 13, 2026, 11:22 UTC

1 31010U 99025BDC 26256.47420611  .00005416  00000-0  20006-2 0  9992
2 31010 101.7187 141.8669 0107384 357.3734   2.6860 14.29893653995513

Verfolge FENGYUN 1C DEB in Echtzeit mit AllMySat

Download on the App Store